This demonstration page uses our WeatherBlox Daily Observations layout. Learn more.

Left ArrowRight Arrow

Hourly Observations for July 6, 2015

Temp ( °F °C ) Dew Point ( °F °C ) Humidity (%) Winds ( mph kmh ) Pressure ( in mb ) Visibility ( mi km ) Precip ( " mm )
12:53 am 00:53 Clear 64 17.8 63 17.2 96 96 N N/A 30.08 1019 7 11 N/A
1:53 am 01:53 Clear with Mist and Fog 63 17.2 62 16.7 97 97 N N/A 30.06 1018 5 8 N/A
2:53 am 02:53 Clear with Mist and Fog 62 16.7 61 16.1 96 96 N N/A 30.05 1018 4 6 N/A
3:53 am 03:53 Clear with Mist and Fog 61 16.1 60 15.6 97 97 N N/A 30.04 1017 2 3 N/A
4:07 am 04:07 Clear with Mist and Fog 61 16.1 60 15.6 97 97 N N/A 30.06 1018 4 6 N/A
4:28 am 04:28 Clear with Mist and Fog 60 15.6 59 15 96 96 N N/A 30.06 1018 2 3 N/A
4:38 am 04:38 Clear with Mist and Fog 61 16.1 60 15.6 97 97 WNW 3 6 30.06 1018 3 5 N/A
4:53 am 04:53 Clear with Mist and Fog 61 16.1 60 15.6 97 97 N N/A 30.06 1018 5 8 N/A
5:34 am 05:34 Clear with Mist and Fog 60 15.6 59 15 96 96 N N/A 30.06 1018 3 4 N/A
5:51 am 05:51 Clear with Mist and Fog 61 16 59 15 94 94 N N/A 30.06 1018 4 6 N/A
5:53 am 05:53 Clear with Mist and Fog 60 15.6 59 15 96 96 N N/A 30.09 1019 4 6 N/A
6:15 am 06:15 Clear with Mist and Fog 58 14.4 57 13.9 97 97 N N/A 30.06 1018 3 4 N/A
6:23 am 06:23 Sunny with Mist and Fog 59 15 58 14.4 96 96 N N/A 30.06 1018 3 5 N/A
6:30 am 06:30 Sunny with Mist and Fog 59 15 58 14.4 96 96 N N/A 30.06 1018 2 3 N/A
6:38 am 06:38 Sunny with Mist and Fog 59 15 58 14.4 96 96 N N/A 30.09 1019 1 2 N/A
6:43 am 06:43 Sunny with Mist and Fog 59 15 58 14.4 96 96 N N/A 30.09 1019 2 3 N/A
6:51 am 06:51 Sunny with Mist and Fog 61 16 59 15 94 94 W 3 6 30.09 1019 4 6 N/A
6:53 am 06:53 Sunny with Mist and Fog 59 15 59 15 100 100 N N/A 30.10 1019 4 6 N/A
7:53 am 07:53 Sunny with Mist and Fog 63 17.2 62 16.7 97 97 N N/A 30.10 1019 3 5 N/A
8:53 am 08:53 Sunny with Mist and Fog 67 19.4 64 17.8 91 91 N N/A 30.11 1020 6 10 N/A
9:53 am 09:53 Sunny 73 22.8 64 17.8 74 74 N N/A 30.11 1020 8 13 N/A
10:53 am 10:53 Sunny 78 25.6 66 18.9 67 67 VRB 5 7 30.10 1019 10 16 N/A
11:53 am 11:53 Sunny 79 26.1 66 18.9 65 65 VRB 6 9 30.08 1019 10 16 N/A
12:53 pm 12:53 Mostly Sunny 79 26.1 66 18.9 65 65 VRB 3 6 30.08 1019 9 14 N/A
1:53 pm 13:53 Mostly Sunny 82 27.8 65 18.3 56 56 VRB 5 7 30.08 1019 9 14 N/A
2:53 pm 14:53 Mostly Sunny 84 28.9 67 19.4 57 57 VRB 3 6 30.07 1018 9 14 N/A
3:53 pm 15:53 Mostly Sunny 85 29.4 66 18.9 53 53 VRB 5 7 30.04 1017 8 13 N/A
4:53 pm 16:53 Mostly Sunny 85 29.4 67 19.4 55 55 VRB 5 7 30.01 1016 7 11 N/A
5:53 pm 17:53 Sunny 85 29.4 69 20.6 59 59 N N/A 30.00 1016 7 11 N/A
6:53 pm 18:53 Hazy 84 28.9 68 20 59 59 VRB 3 6 29.99 1016 6 10 N/A
7:53 pm 19:53 Hazy 83 28.3 68 20 61 61 VRB 3 6 29.98 1015 6 10 N/A
8:53 pm 20:53 Hazy 77 25 69 20.6 77 77 S 3 6 29.98 1015 5 8 N/A
9:53 pm 21:53 Mostly Clear with Mist and Fog 73 22.8 69 20.6 87 87 S 3 6 29.98 1015 5 8 N/A
10:53 pm 22:53 Mostly Clear 74 23.3 68 20 82 82 N N/A 30.00 1016 7 11 N/A
11:53 pm 23:53 Clear 74 23.3 69 20.6 85 85 N N/A 30.00 1016 7 11 N/A

Powered by AerisWeather